{"data":{"norad_id":68699,"intl_designator":"2026-081A","name":"STARLINK-37358","alt_names":[],"object_type":"PAYLOAD","status":"ACTIVE","operator":null,"country":"US","launch_date":"2026-04-14","launch_site_code":"AFETR","launch_vehicle":null,"mission":null,"orbit_class":"UNKNOWN","rcs_meters":null,"size_class":null,"mass_kg":null,"dimensions":null,"purposes":["comms"],"wikipedia_slug":null,"has_3d_model":false,"image_url":null,"decayed_at":null,"tle_current":{"epoch":"2026-05-25T04:00:03.998880Z","epoch_age_seconds":54488,"freshness":"FRESH","line1":"1 68699U 26081A   26145.16671295 -.02173831  00000+0 -62864-1 0  9993","line2":"2 68699  53.1594  39.2663 0001602 110.9034 341.6848 15.38438404  5743","mean_motion":15.38438404,"eccentricity":0.0001602,"inclination_deg":53.1594,"raan_deg":39.2663,"arg_perigee_deg":110.9034,"mean_anomaly_deg":341.6848,"bstar":-0.062864,"rev_number":574,"period_min":93.601407521805,"perigee_km":449.63253274998,"apogee_km":451.82050062073,"semimajor_km":6828.8635166854,"source":"CELESTRAK","updated_at":"2026-05-25T13:38:21.997293Z"}}}